TimeCDT,TemperatureF,Dew PointF,Humidity,Sea Level PressureIn,VisibilityMPH,Wind Direction,Wind SpeedMPH,Gust SpeedMPH,PrecipitationIn,Events,Conditions,WindDirDegrees,DateUTC
12:15 AM,44.2,25.0,47,30.39,10.0,NNW,5.8,-,N/A,,Clear,340,2013-03-26 05:15:00
12:35 AM,41.0,28.6,61,30.39,10.0,Calm,Calm,-,N/A,,Clear,0,2013-03-26 05:35:00
12:55 AM,36.9,32.0,83,30.40,10.0,South,3.5,-,N/A,,Clear,190,2013-03-26 05:55:00
1:15 AM,36.9,31.8,82,30.40,10.0,Calm,Calm,-,N/A,,Clear,0,2013-03-26 06:15:00
1:35 AM,35.8,32.0,86,30.41,10.0,Calm,Calm,-,N/A,,Clear,0,2013-03-26 06:35:00
1:55 AM,35.8,31.8,86,30.41,10.0,Calm,Calm,-,N/A,,Clear,0,2013-03-26 06:55:00
2:15 AM,35.8,31.6,85,30.41,10.0,Calm,Calm,-,N/A,,Clear,0,2013-03-26 07:15:00
2:35 AM,35.4,31.3,85,30.41,10.0,Calm,Calm,-,N/A,,Clear,0,2013-03-26 07:35:00
2:55 AM,36.5,29.7,76,30.41,10.0,NNW,4.6,-,N/A,,Clear,340,2013-03-26 07:55:00
3:15 AM,39.9,26.2,58,30.41,10.0,North,6.9,-,N/A,,Clear,10,2013-03-26 08:15:00
3:35 AM,41.0,25.3,54,30.41,10.0,NNE,5.8,-,N/A,,Clear,20,2013-03-26 08:35:00
3:55 AM,40.8,24.8,53,30.41,10.0,North,3.5,-,N/A,,Clear,10,2013-03-26 08:55:00
4:15 AM,39.6,25.2,56,30.42,10.0,Calm,Calm,-,N/A,,Clear,0,2013-03-26 09:15:00
4:35 AM,38.1,26.8,64,30.41,10.0,Calm,Calm,-,N/A,,Clear,0,2013-03-26 09:35:00
4:55 AM,36.3,28.4,73,30.41,10.0,Calm,Calm,-,N/A,,Clear,0,2013-03-26 09:55:00
5:15 AM,34.5,28.9,80,30.41,10.0,Calm,Calm,-,N/A,,Clear,0,2013-03-26 10:15:00
5:35 AM,33.6,29.1,84,30.42,10.0,Calm,Calm,-,N/A,,Clear,0,2013-03-26 10:35:00
5:55 AM,32.9,28.8,85,30.42,10.0,Calm,Calm,-,N/A,,Clear,0,2013-03-26 10:55:00
6:15 AM,31.8,28.8,88,30.43,10.0,Calm,Calm,-,N/A,,Clear,0,2013-03-26 11:15:00
6:35 AM,31.5,28.9,90,30.44,10.0,Calm,Calm,-,N/A,,Clear,0,2013-03-26 11:35:00
6:55 AM,31.5,28.8,90,30.44,10.0,Calm,Calm,-,N/A,,Clear,0,2013-03-26 11:55:00
7:15 AM,30.9,28.2,90,30.45,10.0,Calm,Calm,-,N/A,,Clear,0,2013-03-26 12:15:00
7:35 AM,30.6,28.6,92,30.46,10.0,Calm,Calm,-,N/A,,Clear,0,2013-03-26 12:35:00
7:55 AM,31.5,29.5,92,30.46,10.0,Calm,Calm,-,N/A,,Clear,0,2013-03-26 12:55:00
8:15 AM,32.7,30.4,91,30.47,10.0,Calm,Calm,-,N/A,,Clear,0,2013-03-26 13:15:00
8:35 AM,35.8,30.7,82,30.48,10.0,Calm,Calm,-,N/A,,Clear,0,2013-03-26 13:35:00
8:55 AM,39.7,30.9,71,30.49,10.0,Calm,Calm,-,N/A,,Clear,0,2013-03-26 13:55:00
9:15 AM,42.6,28.4,57,30.49,10.0,North,3.5,-,N/A,,Clear,10,2013-03-26 14:15:00
9:35 AM,44.8,26.8,49,30.50,10.0,North,9.2,-,N/A,,Clear,350,2013-03-26 14:35:00
9:55 AM,46.4,24.3,42,30.50,10.0,North,8.1,-,N/A,,Clear,360,2013-03-26 14:55:00
10:15 AM,47.8,23.2,38,30.50,10.0,North,6.9,-,N/A,,Clear,360,2013-03-26 15:15:00
10:35 AM,48.9,22.6,36,30.50,10.0,NNW,6.9,-,N/A,,Clear,330,2013-03-26 15:35:00
10:55 AM,50.2,22.5,34,30.50,10.0,NNW,6.9,-,N/A,,Clear,330,2013-03-26 15:55:00
11:15 AM,50.9,21.9,32,30.49,10.0,NNW,15.0,18.4,N/A,,Clear,340,2013-03-26 16:15:00
11:35 AM,50.9,21.0,31,30.49,10.0,North,17.3,-,N/A,,Clear,350,2013-03-26 16:35:00
11:55 AM,51.8,20.8,30,30.49,10.0,NNW,11.5,19.6,N/A,,Clear,340,2013-03-26 16:55:00
12:15 PM,52.3,20.3,28,30.48,10.0,WNW,9.2,19.6,N/A,,Clear,300,2013-03-26 17:15:00
12:35 PM,53.1,19.8,27,30.47,10.0,NW,17.3,20.7,N/A,,Clear,320,2013-03-26 17:35:00
12:55 PM,53.6,19.2,26,30.47,10.0,NW,16.1,20.7,N/A,,Clear,310,2013-03-26 17:55:00
1:15 PM,54.7,19.8,26,30.46,10.0,NNW,12.7,18.4,N/A,,Clear,330,2013-03-26 18:15:00
1:35 PM,55.0,20.7,26,30.45,10.0,North,5.8,17.3,N/A,,Clear,360,2013-03-26 18:35:00
1:55 PM,55.2,21.0,26,30.44,10.0,North,11.5,-,N/A,,Clear,350,2013-03-26 18:55:00
2:15 PM,55.6,21.0,26,30.43,10.0,NW,10.4,18.4,N/A,,Clear,310,2013-03-26 19:15:00
2:35 PM,56.3,21.2,26,30.42,10.0,North,6.9,17.3,N/A,,Clear,360,2013-03-26 19:35:00
2:55 PM,56.7,21.4,25,30.41,10.0,NW,5.8,16.1,N/A,,Clear,320,2013-03-26 19:55:00
3:15 PM,57.4,21.0,24,30.40,10.0,WNW,6.9,-,N/A,,Clear,290,2013-03-26 20:15:00
3:35 PM,57.9,21.0,24,30.39,10.0,North,6.9,-,N/A,,Clear,360,2013-03-26 20:35:00
3:55 PM,58.5,21.4,24,30.39,10.0,NNW,11.5,-,N/A,,Clear,340,2013-03-26 20:55:00
4:15 PM,59.0,21.4,23,30.38,10.0,NNE,3.5,-,N/A,,Clear,30,2013-03-26 21:15:00
4:35 PM,59.2,21.7,24,30.37,10.0,NE,5.8,-,N/A,,Clear,50,2013-03-26 21:35:00
4:55 PM,59.5,21.2,23,30.37,10.0,North,9.2,-,N/A,,Clear,10,2013-03-26 21:55:00
5:15 PM,59.4,20.3,22,30.37,10.0,NW,6.9,-,N/A,,Clear,320,2013-03-26 22:15:00
5:35 PM,59.2,19.6,22,30.36,10.0,WNW,3.5,-,N/A,,Clear,300,2013-03-26 22:35:00
5:55 PM,58.8,20.1,22,30.36,10.0,North,6.9,-,N/A,,Clear,360,2013-03-26 22:55:00
6:15 PM,58.5,19.9,22,30.36,10.0,North,4.6,-,N/A,,Clear,360,2013-03-26 23:15:00
6:35 PM,57.9,19.8,23,30.36,10.0,NW,3.5,-,N/A,,Clear,310,2013-03-26 23:35:00
6:55 PM,57.0,20.7,24,30.36,10.0,North,5.8,-,N/A,,Clear,350,2013-03-26 23:55:00
7:15 PM,55.8,21.7,27,30.36,10.0,NNW,3.5,-,N/A,,Clear,340,2013-03-27 00:15:00
7:35 PM,54.1,23.2,30,30.36,10.0,Calm,Calm,-,N/A,,Clear,0,2013-03-27 00:35:00
7:55 PM,50.2,31.6,49,30.37,10.0,Calm,Calm,-,N/A,,Clear,0,2013-03-27 00:55:00
8:15 PM,47.1,32.9,58,30.37,10.0,Calm,Calm,-,N/A,,Clear,0,2013-03-27 01:15:00
8:35 PM,45.5,32.9,61,30.37,10.0,Calm,Calm,-,N/A,,Clear,0,2013-03-27 01:35:00
8:55 PM,44.1,32.7,64,30.37,10.0,ENE,4.6,-,N/A,,Clear,70,2013-03-27 01:55:00
9:15 PM,42.3,32.4,68,30.38,10.0,Calm,Calm,-,N/A,,Clear,0,2013-03-27 02:15:00
9:35 PM,41.9,32.2,68,30.38,10.0,Calm,Calm,-,N/A,,Clear,0,2013-03-27 02:35:00
9:55 PM,42.3,33.4,71,30.39,10.0,Calm,Calm,-,N/A,,Clear,0,2013-03-27 02:55:00
10:15 PM,41.0,33.4,74,30.39,10.0,Calm,Calm,-,N/A,,Clear,0,2013-03-27 03:15:00
10:35 PM,39.2,33.6,80,30.39,10.0,Calm,Calm,-,N/A,,Clear,0,2013-03-27 03:35:00
10:55 PM,39.0,34.0,82,30.39,10.0,Calm,Calm,-,N/A,,Clear,0,2013-03-27 03:55:00
11:15 PM,38.1,34.0,85,30.40,10.0,Calm,Calm,-,N/A,,Clear,0,2013-03-27 04:15:00
11:35 PM,37.8,33.8,86,30.40,10.0,Calm,Calm,-,N/A,,Clear,0,2013-03-27 04:35:00
11:55 PM,37.2,33.4,86,30.40,10.0,Calm,Calm,-,N/A,,Clear,0,2013-03-27 04:55:00